Location: Fort Wayne
(41.1310°N, 85.1290°W)
Time: 23:20:29
(UTC-04:00)

Gbstr 26 Del rocket - Visible Passes

Search period start: 23 April 2014 00:00
Search period end: 03 May 2014 00:00
Orbit: 494 x 1280 km, 51.8° (Epoch: 23 April)

Date Brightness Start Highest point End Pass type
(mag) Time Alt. Az. Time Alt. Az. Time Alt. Az.
23 Apr 6.5 00:19:43 11° ENE 00:19:43 11° ENE 00:20:09 10° ENE visible
23 Apr 4.7 02:02:23 61° NE 02:02:23 61° NE 02:08:58 10° NE visible
23 Apr 5.3 03:45:04 25° WNW 03:49:20 44° NNW 03:57:09 10° NE visible
23 Apr 5.7 05:31:09 10° WNW 05:38:41 40° N 05:46:13 10° ENE visible
24 Apr 6.3 00:17:05 15° ENE 00:17:05 15° ENE 00:18:26 10° ENE visible
24 Apr 4.6 01:59:45 68° NNE 01:59:45 68° NNE 02:06:58 10° NE visible
24 Apr 5.5 03:42:25 19° WNW 03:47:33 42° N 03:55:16 10° ENE visible
24 Apr 5.7 05:29:18 10° WNW 05:36:54 42° NNE 05:44:30 10° E visible
25 Apr 6.0 00:14:21 20° ENE 00:14:21 20° ENE 00:16:37 10° ENE visible
25 Apr 4.6 01:57:00 67° NNW 01:57:00 67° NNW 02:04:57 10° NE visible
25 Apr 5.6 03:39:39 14° WNW 03:45:46 40° N 03:53:24 10° ENE visible
25 Apr 5.6 05:27:24 10° NW 05:35:06 45° NNE 05:42:46 10° E visible
26 Apr 5.6 00:11:26 26° ENE 00:11:26 26° ENE 00:14:43 10° ENE visible
26 Apr 4.7 01:54:04 56° NW 01:54:57 59° NNW 02:02:57 10° NE visible
26 Apr 5.7 03:36:53 10° WNW 03:43:59 39° N 03:51:35 10° ENE visible
26 Apr 5.5 05:25:29 10° NW 05:33:16 48° NNE 05:41:02 10° E visible
27 Apr 5.1 00:08:15 36° ENE 00:08:15 36° ENE 00:12:46 10° ENE visible
27 Apr 5.0 01:50:52 41° WNW 01:53:04 52° NNW 02:00:57 10° NE visible
27 Apr 5.7 03:35:06 10° WNW 03:42:13 38° N 03:49:47 10° ENE visible
27 Apr 5.4 05:23:31 10° NW 05:31:25 52° NNE 05:39:16 10° E visible
28 Apr 4.4 00:04:37 57° ENE 00:04:37 57° ENE 00:10:47 10° NE visible
28 Apr 5.2 01:47:11 25° WNW 01:51:13 47° NNW 01:58:58 10° NE visible
28 Apr 5.7 03:33:18 10° WNW 03:40:26 39° N 03:48:00 10° ENE visible
28 Apr 5.2 05:21:31 10° NW 05:29:31 58° NNE 05:37:27 10° ESE visible
28 Apr 5.6 22:17:19 18° E 22:17:19 18° E 22:19:45 10° ENE visible
28 Apr 4.1 23:59:43 63° SW 00:00:59 89° SE 00:08:46 10° NE visible
29 Apr 5.3 01:42:38 10° W 01:49:22 44° NNW 01:57:01 10° NE visible
29 Apr 5.7 03:31:27 10° WNW 03:38:38 39° N 03:46:15 10° ENE visible
29 Apr 5.0 05:19:30 10° NW 05:27:35 65° NNE 05:35:35 10° ESE visible
29 Apr 4.7 22:07:00 10° S 22:12:05 29° SE 22:18:05 10° ENE visible
29 Apr 4.2 23:52:33 10° WSW 23:58:57 78° NNW 00:06:44 10° NE visible
30 Apr 5.5 01:40:52 10° W 01:47:33 41° N 01:55:05 10° ENE visible
30 Apr 5.7 03:29:34 10° WNW 03:36:49 41° NNE 03:44:30 10° E visible
30 Apr 4.8 05:17:28 10° NW 05:25:36 74° NNE 05:33:40 10° ESE visible
30 Apr 4.4 22:04:26 10° SSW 22:09:48 37° SE 22:16:16 10° ENE visible
30 Apr 4.4 23:50:36 10° WSW 23:56:58 67° NNW 00:04:41 10° NE visible
01 May 5.6 01:39:06 10° WNW 01:45:44 39° N 01:53:12 10° ENE visible
01 May 5.6 03:27:39 10° NW 03:34:59 43° NNE 03:42:45 10° E visible
01 May 4.7 05:15:26 10° NW 05:23:35 84° NE 05:31:41 10° SE visible
01 May 4.2 22:02:01 10° SSW 22:07:34 47° SE 22:14:22 10° ENE visible
01 May 4.7 23:48:42 10° WSW 23:55:01 58° NNW 00:02:38 10° NE visible
02 May 5.7 01:37:19 10° WNW 01:43:55 38° N 01:51:20 10° ENE visible
02 May 5.5 03:25:41 10° NW 03:33:07 47° NNE 03:40:59 10° E visible
02 May 4.5 05:13:24 10° NW 05:21:31 84° SW 05:29:36 10° SE visible
02 May 4.0 21:59:42 10° SSW 22:05:23 58° SE 22:12:24 10° ENE visible
02 May 4.9 23:46:50 10° W 23:53:06 51° NNW 00:00:00 12° NE visible
